Find Starlink 32879

NORAD ID: 62957 Int'l Des: 2025-029 Owner: SPXS Country: US Constellation: starlink operational
LEOCIRCULAR

当前视图

正在加载3D地球...

About Starlink 32879

Starlink 32879 (NORAD 62957) is a starlink constellation satellite (v2 mini) launched Feb 11, 2025 by SPXS of US. It operates in LEO, CIRCULAR orbit with a mass of 730.00 kg.

即将过境

Passes for default location (London). Set your location on the main map for personalized predictions.

高度历史

Loading altitude history...

两行轨道根数

1 62957U 25029K 26225.14198611 .00007244 00000-0 24487-3 0 9990
2 62957 53.1580 224.8685 0001344 86.5027 273.6128 15.31712728 85287
Epoch: Aug 13, 2026 • Age: 9 hours

当前状态

高度 489.9 km
远地点 / 近地点 N/A
速度 7.62 km/s
星下点 -52.77°S, 25.86°W
发射日期 Feb 11, 2025
运行时间 1.5 years
类型 internet

技术详情

分类 Payload
质量 730.00 kg
干质量 700.00 kg
总质量 730.00 kg
长度 0.30 m
直径 4.10 m
跨度 29.00 m
形状 Box + pan
制造商 SPXS
平台类型 Starlink V2M
阶段状态 In Orbit
所有者/国家 SPXS/US

Most Searched